Year,Month,Day,Hour,Minute,Value (Times are PST for temperature in C)
2002,04,14,00,00,10.40
2002,04,14,00,01,10.40
2002,04,14,00,02,10.40
2002,04,14,00,03,10.50
2002,04,14,00,04,10.50
2002,04,14,00,05,10.60
2002,04,14,00,06,10.60
2002,04,14,00,07,10.60
2002,04,14,00,08,10.60
2002,04,14,00,09,10.60
2002,04,14,00,10,10.60
2002,04,14,00,11,10.60
2002,04,14,00,12,10.60
2002,04,14,00,13,10.60
2002,04,14,00,14,10.60
2002,04,14,00,15,10.60
2002,04,14,00,16,10.60
2002,04,14,00,17,10.60
2002,04,14,00,18,10.60
2002,04,14,00,19,10.60
2002,04,14,00,20,10.30
2002,04,14,00,21,10.10
2002,04,14,00,22,9.90
2002,04,14,00,23,9.60
2002,04,14,00,24,9.40
2002,04,14,00,25,9.20
2002,04,14,00,26,8.90
2002,04,14,00,27,8.80
2002,04,14,00,28,8.60
2002,04,14,00,29,8.40
2002,04,14,00,30,8.30
2002,04,14,00,31,8.20
2002,04,14,00,32,8.10
2002,04,14,00,33,7.90
2002,04,14,00,34,7.90
2002,04,14,00,35,7.80
2002,04,14,00,36,7.80
2002,04,14,00,37,7.80
2002,04,14,00,38,7.70
2002,04,14,00,39,7.60
2002,04,14,00,40,7.50
2002,04,14,00,41,7.50
2002,04,14,00,42,7.40
2002,04,14,00,43,7.30
2002,04,14,00,44,7.30
2002,04,14,00,45,7.20
2002,04,14,00,46,7.10
2002,04,14,00,47,7.10
2002,04,14,00,48,7.10
2002,04,14,00,49,7.10
2002,04,14,00,50,6.90
2002,04,14,00,51,6.90
2002,04,14,00,52,6.90
2002,04,14,00,53,6.90
2002,04,14,00,54,6.80
2002,04,14,00,55,6.80
2002,04,14,00,56,6.60
2002,04,14,00,57,6.60
2002,04,14,00,58,6.60
2002,04,14,00,59,6.60
2002,04,14,01,00,6.50
2002,04,14,01,01,6.40
2002,04,14,01,02,6.30
2002,04,14,01,03,6.20
2002,04,14,01,04,6.20
2002,04,14,01,05,6.20
2002,04,14,01,06,6.10
2002,04,14,01,07,6.00
2002,04,14,01,08,6.00
2002,04,14,01,09,5.90
2002,04,14,01,10,6.00
2002,04,14,01,11,6.00
2002,04,14,01,12,6.00
2002,04,14,01,13,5.90
2002,04,14,01,14,5.90
2002,04,14,01,15,5.80
2002,04,14,01,16,5.80
2002,04,14,01,17,5.80
2002,04,14,01,18,5.80
2002,04,14,01,19,5.80
2002,04,14,01,20,5.80
2002,04,14,01,21,5.90
2002,04,14,01,22,5.90
2002,04,14,01,23,5.90
2002,04,14,01,24,5.90
2002,04,14,01,25,5.90
2002,04,14,01,26,5.90
2002,04,14,01,27,5.90
2002,04,14,01,28,5.90
2002,04,14,01,29,5.90
2002,04,14,01,30,5.90
2002,04,14,01,31,5.90
2002,04,14,01,32,5.90
2002,04,14,01,33,5.90
2002,04,14,01,34,5.90
2002,04,14,01,35,5.90
2002,04,14,01,36,5.90
2002,04,14,01,37,5.90
2002,04,14,01,38,5.90
2002,04,14,01,39,5.90
2002,04,14,01,40,5.90
2002,04,14,01,41,5.90
2002,04,14,01,42,5.90
2002,04,14,01,43,5.90
2002,04,14,01,44,5.90
2002,04,14,01,45,5.80
2002,04,14,01,46,5.80
2002,04,14,01,47,5.70
2002,04,14,01,48,5.70
2002,04,14,01,49,5.70
2002,04,14,01,50,5.70
2002,04,14,01,51,5.70
2002,04,14,01,52,5.70
2002,04,14,01,53,5.70
2002,04,14,01,54,5.70
2002,04,14,01,55,5.70
2002,04,14,01,56,5.70
2002,04,14,01,57,5.70
2002,04,14,01,58,5.70
2002,04,14,01,59,5.70
2002,04,14,02,00,5.70
2002,04,14,02,01,5.70
2002,04,14,02,02,5.70
2002,04,14,02,03,5.70
2002,04,14,02,04,5.70
2002,04,14,02,05,5.60
2002,04,14,02,06,5.60
2002,04,14,02,07,5.60
2002,04,14,02,08,5.60
2002,04,14,02,09,5.60
2002,04,14,02,10,5.60
2002,04,14,02,11,5.60
2002,04,14,02,12,5.70
2002,04,14,02,13,5.70
2002,04,14,02,14,5.70
2002,04,14,02,15,5.80
2002,04,14,02,16,5.80
2002,04,14,02,17,5.80
2002,04,14,02,18,5.80
2002,04,14,02,19,5.90
2002,04,14,02,20,5.90
2002,04,14,02,21,5.90
2002,04,14,02,22,5.90
2002,04,14,02,23,5.90
2002,04,14,02,24,5.90
2002,04,14,02,25,5.90
2002,04,14,02,26,5.90
2002,04,14,02,27,5.90
2002,04,14,02,28,5.90
2002,04,14,02,29,5.90
2002,04,14,02,30,5.90
2002,04,14,02,31,5.90
2002,04,14,02,32,5.90
2002,04,14,02,33,5.90
2002,04,14,02,34,5.90
2002,04,14,02,35,6.00
2002,04,14,02,36,6.00
2002,04,14,02,37,6.00
2002,04,14,02,38,6.00
2002,04,14,02,39,6.00
2002,04,14,02,40,6.00
2002,04,14,02,41,6.00
2002,04,14,02,42,6.10
2002,04,14,02,43,6.00
2002,04,14,02,44,6.10
2002,04,14,02,45,6.10
2002,04,14,02,46,6.10
2002,04,14,02,47,6.10
2002,04,14,02,48,6.10
2002,04,14,02,49,6.10
2002,04,14,02,50,6.10
2002,04,14,02,51,6.10
2002,04,14,02,52,6.10
2002,04,14,02,53,6.00
2002,04,14,02,54,6.00
2002,04,14,02,55,5.90
2002,04,14,02,56,5.90
2002,04,14,02,57,5.90
2002,04,14,02,58,5.90
2002,04,14,02,59,5.80
2002,04,14,03,00,5.80
2002,04,14,03,01,5.70
2002,04,14,03,02,5.70
2002,04,14,03,03,5.70
2002,04,14,03,04,5.60
2002,04,14,03,05,5.60
2002,04,14,03,06,5.60
2002,04,14,03,07,5.50
2002,04,14,03,08,5.50
2002,04,14,03,09,5.50
2002,04,14,03,10,5.60
2002,04,14,03,11,5.60
2002,04,14,03,12,5.70
2002,04,14,03,13,5.70
2002,04,14,03,14,5.70
2002,04,14,03,15,5.70
2002,04,14,03,16,5.70
2002,04,14,03,17,5.70
2002,04,14,03,18,5.70
2002,04,14,03,19,5.80
2002,04,14,03,20,5.80
2002,04,14,03,21,5.90
2002,04,14,03,22,5.90
2002,04,14,03,23,5.90
2002,04,14,03,24,5.90
2002,04,14,03,25,5.90
2002,04,14,03,26,5.80
2002,04,14,03,27,5.80
2002,04,14,03,28,5.80
2002,04,14,03,29,5.80
2002,04,14,03,30,5.80
2002,04,14,03,31,5.80
2002,04,14,03,32,5.80
2002,04,14,03,33,5.80
2002,04,14,03,34,5.80
2002,04,14,03,35,5.80
2002,04,14,03,36,5.70
2002,04,14,03,37,5.70
2002,04,14,03,38,5.70
2002,04,14,03,39,5.70
2002,04,14,03,40,5.70
2002,04,14,03,41,5.70
2002,04,14,03,42,5.70
2002,04,14,03,43,5.70
2002,04,14,03,44,5.70
2002,04,14,03,45,5.70
2002,04,14,03,46,5.70
2002,04,14,03,47,5.70
2002,04,14,03,48,5.70
2002,04,14,03,49,5.80
2002,04,14,03,50,5.80
2002,04,14,03,51,5.80
2002,04,14,03,52,5.80
2002,04,14,03,53,5.80
2002,04,14,03,54,5.90
2002,04,14,03,55,5.90
2002,04,14,03,56,5.80
2002,04,14,03,57,5.80
2002,04,14,03,58,5.90
2002,04,14,03,59,5.90
2002,04,14,04,00,5.80
2002,04,14,04,01,5.80
2002,04,14,04,02,5.90
2002,04,14,04,03,5.90
2002,04,14,04,04,5.90
2002,04,14,04,05,5.80
2002,04,14,04,06,5.80
2002,04,14,04,07,5.80
2002,04,14,04,08,5.80
2002,04,14,04,09,5.80
2002,04,14,04,10,5.80
2002,04,14,04,11,5.80
2002,04,14,04,12,5.80
2002,04,14,04,13,5.70
2002,04,14,04,14,5.70
2002,04,14,04,15,5.70
2002,04,14,04,16,5.70
2002,04,14,04,17,5.70
2002,04,14,04,18,5.70
2002,04,14,04,19,5.70
2002,04,14,04,20,5.70
2002,04,14,04,21,5.70
2002,04,14,04,22,5.70
2002,04,14,04,23,5.60
2002,04,14,04,24,5.60
2002,04,14,04,25,5.50
2002,04,14,04,26,5.50
2002,04,14,04,27,5.40
2002,04,14,04,28,5.30
2002,04,14,04,29,5.30
2002,04,14,04,30,5.30
2002,04,14,04,31,5.30
2002,04,14,04,32,5.30
2002,04,14,04,33,5.30
2002,04,14,04,34,5.30
2002,04,14,04,35,5.30
2002,04,14,04,36,5.30
2002,04,14,04,37,5.30
2002,04,14,04,38,5.30
2002,04,14,04,39,5.30
2002,04,14,04,40,5.20
2002,04,14,04,41,5.10
2002,04,14,04,42,5.10
2002,04,14,04,43,5.00
2002,04,14,04,44,4.90
2002,04,14,04,45,4.80
2002,04,14,04,46,4.60
2002,04,14,04,47,4.60
2002,04,14,04,48,4.60
2002,04,14,04,49,4.50
2002,04,14,04,50,4.50
2002,04,14,04,51,4.40
2002,04,14,04,52,4.40
2002,04,14,04,53,4.30
2002,04,14,04,54,4.30
2002,04,14,04,55,4.30
2002,04,14,04,56,4.30
2002,04,14,04,57,4.30
2002,04,14,04,58,4.30
2002,04,14,04,59,4.30
2002,04,14,05,00,4.40
2002,04,14,05,01,4.40
2002,04,14,05,02,4.50
2002,04,14,05,03,4.40
2002,04,14,05,04,4.40
2002,04,14,05,05,4.40
2002,04,14,05,06,4.50
2002,04,14,05,07,4.50
2002,04,14,05,08,4.50
2002,04,14,05,09,4.60
2002,04,14,05,10,4.60
2002,04,14,05,11,4.60
2002,04,14,05,12,4.70
2002,04,14,05,13,4.80
2002,04,14,05,14,4.90
2002,04,14,05,15,4.90
2002,04,14,05,16,4.90
2002,04,14,05,17,4.90
2002,04,14,05,18,5.00
2002,04,14,05,19,4.90
2002,04,14,05,20,4.90
2002,04,14,05,21,4.90
2002,04,14,05,22,5.00
2002,04,14,05,23,5.00
2002,04,14,05,24,4.90
2002,04,14,05,25,5.00
2002,04,14,05,26,5.10
2002,04,14,05,27,5.10
2002,04,14,05,28,5.10
2002,04,14,05,29,5.10
2002,04,14,05,30,5.00
2002,04,14,05,31,5.00
2002,04,14,05,32,4.90
2002,04,14,05,33,4.90
2002,04,14,05,34,4.90
2002,04,14,05,35,4.90
2002,04,14,05,36,4.80
2002,04,14,05,37,4.70
2002,04,14,05,38,4.70
2002,04,14,05,39,4.60
2002,04,14,05,40,4.60
2002,04,14,05,41,4.60
2002,04,14,05,42,4.50
2002,04,14,05,43,4.50
2002,04,14,05,44,4.40
2002,04,14,05,45,4.40
2002,04,14,05,46,4.30
2002,04,14,05,47,4.20
2002,04,14,05,48,4.20
2002,04,14,05,49,4.10
2002,04,14,05,50,4.10
2002,04,14,05,51,4.10
2002,04,14,05,52,4.00
2002,04,14,05,53,4.00
2002,04,14,05,54,4.00
2002,04,14,05,55,3.90
2002,04,14,05,56,3.90
2002,04,14,05,57,3.90
2002,04,14,05,58,3.90
2002,04,14,05,59,3.90
2002,04,14,06,00,3.90
2002,04,14,06,01,3.90
2002,04,14,06,02,3.90
2002,04,14,06,03,3.90
2002,04,14,06,04,3.90
2002,04,14,06,05,4.00
2002,04,14,06,06,3.90
2002,04,14,06,07,3.90
2002,04,14,06,08,3.90
2002,04,14,06,09,3.90
2002,04,14,06,10,4.00
2002,04,14,06,11,3.90
2002,04,14,06,12,3.90
2002,04,14,06,13,3.90
2002,04,14,06,14,3.90
2002,04,14,06,15,3.90
2002,04,14,06,16,3.90
2002,04,14,06,17,3.90
2002,04,14,06,18,3.80
2002,04,14,06,19,3.80
2002,04,14,06,20,3.80
2002,04,14,06,21,3.80
2002,04,14,06,22,3.80
2002,04,14,06,23,3.80
2002,04,14,06,24,3.80
2002,04,14,06,25,3.80
2002,04,14,06,26,3.80
2002,04,14,06,27,3.80
2002,04,14,06,28,3.90
2002,04,14,06,29,3.90
2002,04,14,06,30,3.90
2002,04,14,06,31,3.90
2002,04,14,06,32,4.00
2002,04,14,06,33,4.00
2002,04,14,06,34,4.10
2002,04,14,06,35,4.10
2002,04,14,06,36,4.10
2002,04,14,06,37,4.10
2002,04,14,06,38,4.10
2002,04,14,06,39,4.10
2002,04,14,06,40,4.10
2002,04,14,06,41,4.10
2002,04,14,06,42,4.20
2002,04,14,06,43,4.10
2002,04,14,06,44,4.20
2002,04,14,06,45,4.20
2002,04,14,06,46,4.20
2002,04,14,06,47,4.20
2002,04,14,06,48,4.20
2002,04,14,06,49,4.20
2002,04,14,06,50,4.20
2002,04,14,06,51,4.20
2002,04,14,06,52,4.20
2002,04,14,06,53,4.20
2002,04,14,06,54,4.20
2002,04,14,06,55,4.20
2002,04,14,06,56,4.20
2002,04,14,06,57,4.20
2002,04,14,06,58,4.20
2002,04,14,06,59,4.20
2002,04,14,07,00,4.20
2002,04,14,07,01,4.20
2002,04,14,07,02,4.20
2002,04,14,07,03,4.30
2002,04,14,07,04,4.30
2002,04,14,07,05,4.30
2002,04,14,07,06,4.30
2002,04,14,07,07,4.40
2002,04,14,07,08,4.40
2002,04,14,07,09,4.40
2002,04,14,07,10,4.40
2002,04,14,07,11,4.50
2002,04,14,07,12,4.60
2002,04,14,07,13,4.60
2002,04,14,07,14,4.60
2002,04,14,07,15,4.60
2002,04,14,07,16,4.60
2002,04,14,07,17,4.70
2002,04,14,07,18,4.70
2002,04,14,07,19,4.70
2002,04,14,07,20,4.70
2002,04,14,07,21,4.80
2002,04,14,07,22,4.80
2002,04,14,07,23,4.80
2002,04,14,07,24,4.90
2002,04,14,07,25,4.90
2002,04,14,07,26,4.90
2002,04,14,07,27,4.90
2002,04,14,07,28,4.90
2002,04,14,07,29,5.10
2002,04,14,07,30,5.10
2002,04,14,07,31,5.10
2002,04,14,07,32,5.20
2002,04,14,07,33,5.30
2002,04,14,07,34,5.30
2002,04,14,07,35,5.10
2002,04,14,07,36,4.80
2002,04,14,07,37,4.60
2002,04,14,07,38,4.50
2002,04,14,07,39,4.40
2002,04,14,07,40,4.20
2002,04,14,07,41,4.10
2002,04,14,07,42,4.00
2002,04,14,07,43,4.00
2002,04,14,07,44,3.80
2002,04,14,07,45,3.80
2002,04,14,07,46,3.80
2002,04,14,07,47,3.80
2002,04,14,07,48,3.80
2002,04,14,07,49,3.80
2002,04,14,07,50,3.80
2002,04,14,07,51,3.90
2002,04,14,07,52,4.00
2002,04,14,07,53,4.00
2002,04,14,07,54,4.10
2002,04,14,07,55,4.10
2002,04,14,07,56,4.20
2002,04,14,07,57,4.10
2002,04,14,07,58,4.20
2002,04,14,07,59,4.20
2002,04,14,08,00,4.30
2002,04,14,08,01,4.30
2002,04,14,08,02,4.40
2002,04,14,08,03,4.40
2002,04,14,08,04,4.50
2002,04,14,08,05,4.60
2002,04,14,08,06,4.60
2002,04,14,08,07,4.70
2002,04,14,08,08,4.80
2002,04,14,08,09,4.80
2002,04,14,08,10,4.80
2002,04,14,08,11,4.80
2002,04,14,08,12,4.80
2002,04,14,08,13,4.80
2002,04,14,08,14,4.70
2002,04,14,08,15,4.60
2002,04,14,08,16,4.60
2002,04,14,08,17,4.50
2002,04,14,08,18,4.30
2002,04,14,08,19,4.20
2002,04,14,08,20,4.20
2002,04,14,08,21,4.20
2002,04,14,08,22,4.20
2002,04,14,08,23,4.20
2002,04,14,08,24,4.20
2002,04,14,08,25,4.20
2002,04,14,08,26,4.20
2002,04,14,08,27,4.00
2002,04,14,08,28,3.80
2002,04,14,08,29,3.70
2002,04,14,08,30,3.60
2002,04,14,08,31,3.60
2002,04,14,08,32,3.60
2002,04,14,08,33,3.60
2002,04,14,08,34,3.60
2002,04,14,08,35,3.70
2002,04,14,08,36,3.70
2002,04,14,08,37,3.70
2002,04,14,08,38,3.80
2002,04,14,08,39,3.70
2002,04,14,08,40,3.80
2002,04,14,08,41,3.80
2002,04,14,08,42,4.00
2002,04,14,08,43,4.00
2002,04,14,08,44,4.00
2002,04,14,08,45,4.00
2002,04,14,08,46,4.10
2002,04,14,08,47,4.20
2002,04,14,08,48,4.20
2002,04,14,08,49,4.20
2002,04,14,08,50,4.40
2002,04,14,08,51,4.40
2002,04,14,08,52,4.50
2002,04,14,08,53,4.60
2002,04,14,08,54,4.70
2002,04,14,08,55,4.70
2002,04,14,08,56,4.90
2002,04,14,08,57,5.00
2002,04,14,08,58,5.10
2002,04,14,08,59,5.10
2002,04,14,09,00,5.20
2002,04,14,09,01,5.20
2002,04,14,09,02,5.30
2002,04,14,09,03,5.30
2002,04,14,09,04,5.30
2002,04,14,09,05,5.40
2002,04,14,09,06,5.40
2002,04,14,09,07,5.50
2002,04,14,09,08,5.60
2002,04,14,09,09,5.60
2002,04,14,09,10,5.70
2002,04,14,09,11,5.70
2002,04,14,09,12,5.80
2002,04,14,09,13,5.80
2002,04,14,09,14,5.90
2002,04,14,09,15,6.00
2002,04,14,09,16,6.00
2002,04,14,09,17,6.00
2002,04,14,09,18,6.00
2002,04,14,09,19,6.10
2002,04,14,09,20,6.10
2002,04,14,09,21,6.20
2002,04,14,09,22,6.20
2002,04,14,09,23,6.20
2002,04,14,09,24,6.20
2002,04,14,09,25,6.30
2002,04,14,09,26,6.40
2002,04,14,09,27,6.40
2002,04,14,09,28,6.30
2002,04,14,09,29,6.30
2002,04,14,09,30,6.40
2002,04,14,09,31,6.40
2002,04,14,09,32,6.50
2002,04,14,09,33,6.60
2002,04,14,09,34,6.70
2002,04,14,09,35,6.80
2002,04,14,09,36,6.80
2002,04,14,09,37,6.80
2002,04,14,09,38,6.80
2002,04,14,09,39,6.90
2002,04,14,09,40,7.00
2002,04,14,09,41,7.10
2002,04,14,09,42,7.10
2002,04,14,09,43,7.10
2002,04,14,09,44,7.10
2002,04,14,09,45,7.10
2002,04,14,09,46,7.20
2002,04,14,09,47,7.20
2002,04,14,09,48,7.20
2002,04,14,09,49,7.20
2002,04,14,09,50,7.20
2002,04,14,09,51,7.30
2002,04,14,09,52,7.30
2002,04,14,09,53,7.20
2002,04,14,09,54,7.30
2002,04,14,09,55,7.30
2002,04,14,09,56,7.30
2002,04,14,09,57,7.30
2002,04,14,09,58,7.30
2002,04,14,09,59,7.40
2002,04,14,10,00,7.40
2002,04,14,10,01,7.40
2002,04,14,10,02,7.50
2002,04,14,10,03,7.50
2002,04,14,10,04,7.60
2002,04,14,10,05,7.70
2002,04,14,10,06,7.70
2002,04,14,10,07,7.80
2002,04,14,10,08,7.70
2002,04,14,10,09,7.80
2002,04,14,10,10,7.80
2002,04,14,10,11,7.80
2002,04,14,10,12,7.80
2002,04,14,10,13,7.80
2002,04,14,10,14,7.80
2002,04,14,10,15,7.80
2002,04,14,10,16,7.80
2002,04,14,10,17,7.70
2002,04,14,10,18,7.70
2002,04,14,10,19,7.60
2002,04,14,10,20,7.50
2002,04,14,10,21,7.50
2002,04,14,10,22,7.40
2002,04,14,10,23,7.40
2002,04,14,10,24,7.40
2002,04,14,10,25,7.40
2002,04,14,10,26,7.30
2002,04,14,10,27,7.30
2002,04,14,10,28,7.20
2002,04,14,10,29,7.20
2002,04,14,10,30,7.30
2002,04,14,10,31,7.30
2002,04,14,10,32,7.30
2002,04,14,10,33,7.30
2002,04,14,10,34,7.30
2002,04,14,10,35,7.20
2002,04,14,10,36,7.20
2002,04,14,10,37,7.20
2002,04,14,10,38,7.20
2002,04,14,10,39,7.30
2002,04,14,10,40,7.30
2002,04,14,10,41,7.30
2002,04,14,10,42,7.30
2002,04,14,10,43,7.30
2002,04,14,10,44,7.30
2002,04,14,10,45,7.30
2002,04,14,10,46,7.30
2002,04,14,10,47,7.30
2002,04,14,10,48,7.30
2002,04,14,10,49,7.30
2002,04,14,10,50,7.20
2002,04,14,10,51,7.20
2002,04,14,10,52,7.20
2002,04,14,10,53,7.20
2002,04,14,10,54,7.20
2002,04,14,10,55,7.20
2002,04,14,10,56,7.20
2002,04,14,10,57,7.20
2002,04,14,10,58,7.20
2002,04,14,10,59,7.20
2002,04,14,11,00,7.20
2002,04,14,11,01,6.80
2002,04,14,11,02,6.80
2002,04,14,11,03,6.80
2002,04,14,11,04,6.70
2002,04,14,11,05,6.70
2002,04,14,11,06,6.60
2002,04,14,11,07,6.50
2002,04,14,11,08,6.50
2002,04,14,11,09,6.60
2002,04,14,11,10,6.60
2002,04,14,11,11,6.50
2002,04,14,11,12,6.40
2002,04,14,11,13,6.40
2002,04,14,11,14,6.40
2002,04,14,11,15,6.30
2002,04,14,11,16,6.20
2002,04,14,11,17,6.20
2002,04,14,11,18,6.20
2002,04,14,11,19,6.10
2002,04,14,11,20,6.00
2002,04,14,11,21,6.00
2002,04,14,11,22,6.00
2002,04,14,11,23,5.90
2002,04,14,11,24,5.80
2002,04,14,11,25,5.80
2002,04,14,11,26,5.70
2002,04,14,11,27,5.60
2002,04,14,11,28,5.60
2002,04,14,11,29,5.60
2002,04,14,11,30,5.60
2002,04,14,11,31,5.50
2002,04,14,11,32,5.40
2002,04,14,11,33,5.40
2002,04,14,11,34,5.40
2002,04,14,11,35,5.40
2002,04,14,11,36,5.30
2002,04,14,11,37,5.20
2002,04,14,11,38,5.30
2002,04,14,11,39,5.30
2002,04,14,11,40,5.30
2002,04,14,11,41,5.30
2002,04,14,11,42,5.20
2002,04,14,11,43,5.20
2002,04,14,11,44,5.20
2002,04,14,11,45,5.20
2002,04,14,11,46,5.20
2002,04,14,11,47,5.30
2002,04,14,11,48,5.30
2002,04,14,11,49,5.30
2002,04,14,11,50,5.30
2002,04,14,11,51,5.20
2002,04,14,11,52,5.20
2002,04,14,11,53,5.20
2002,04,14,11,54,5.10
2002,04,14,11,55,4.90
2002,04,14,11,56,4.90
2002,04,14,11,57,4.80
2002,04,14,11,58,4.80
2002,04,14,11,59,4.80
2002,04,14,12,00,4.80
2002,04,14,12,01,4.70
2002,04,14,12,02,4.60
2002,04,14,12,03,4.60
2002,04,14,12,04,4.60
2002,04,14,12,05,4.70
2002,04,14,12,06,4.70
2002,04,14,12,07,4.70
2002,04,14,12,08,4.80
2002,04,14,12,09,4.90
2002,04,14,12,10,4.90
2002,04,14,12,11,4.90
2002,04,14,12,12,4.90
2002,04,14,12,13,4.90
2002,04,14,12,14,4.90
2002,04,14,12,15,5.00
2002,04,14,12,16,5.10
2002,04,14,12,17,5.10
2002,04,14,12,18,5.10
2002,04,14,12,19,5.20
2002,04,14,12,20,5.20
2002,04,14,12,21,5.30
2002,04,14,12,22,5.30
2002,04,14,12,23,5.30
2002,04,14,12,24,5.30
2002,04,14,12,25,5.40
2002,04,14,12,26,5.40
2002,04,14,12,27,5.50
2002,04,14,12,28,5.60
2002,04,14,12,29,5.50
2002,04,14,12,30,5.60
2002,04,14,12,31,5.60
2002,04,14,12,32,5.60
2002,04,14,12,33,5.70
2002,04,14,12,34,5.70
2002,04,14,12,35,5.70
2002,04,14,12,36,5.70
2002,04,14,12,37,5.70
2002,04,14,12,38,5.80
2002,04,14,12,39,5.90
2002,04,14,12,40,6.00
2002,04,14,12,41,6.00
2002,04,14,12,42,6.00
2002,04,14,12,43,6.10
2002,04,14,12,44,6.20
2002,04,14,12,45,6.20
2002,04,14,12,46,6.10
2002,04,14,12,47,6.10
2002,04,14,12,48,6.10
2002,04,14,12,49,6.00
2002,04,14,12,50,6.00
2002,04,14,12,51,6.10
2002,04,14,12,52,6.20
2002,04,14,12,53,6.20
2002,04,14,12,54,6.20
2002,04,14,12,55,6.20
2002,04,14,12,56,6.30
2002,04,14,12,57,6.40
2002,04,14,12,58,6.50
2002,04,14,12,59,6.60
2002,04,14,13,00,6.60
2002,04,14,13,01,6.70
2002,04,14,13,02,6.70
2002,04,14,13,03,6.80
2002,04,14,13,04,6.80
2002,04,14,13,05,6.80
2002,04,14,13,06,6.70
2002,04,14,13,07,6.80
2002,04,14,13,08,6.80
2002,04,14,13,09,6.80
2002,04,14,13,10,6.90
2002,04,14,13,11,7.10
2002,04,14,13,12,7.20
2002,04,14,13,13,7.30
2002,04,14,13,14,7.40
2002,04,14,13,15,7.30
2002,04,14,13,16,7.30
2002,04,14,13,17,7.10
2002,04,14,13,18,6.90
2002,04,14,13,19,6.80
2002,04,14,13,20,6.80
2002,04,14,13,21,6.60
2002,04,14,13,22,6.50
2002,04,14,13,23,6.40
2002,04,14,13,24,6.40
2002,04,14,13,25,6.50
2002,04,14,13,26,6.50
2002,04,14,13,27,6.60
2002,04,14,13,28,6.50
2002,04,14,13,29,6.30
2002,04,14,13,30,6.20
2002,04,14,13,31,6.20
2002,04,14,13,32,6.20
2002,04,14,13,33,6.20
2002,04,14,13,34,6.30
2002,04,14,13,35,6.30
2002,04,14,13,36,6.30
2002,04,14,13,37,6.30
2002,04,14,13,38,6.40
2002,04,14,13,39,6.40
2002,04,14,13,40,6.40
2002,04,14,13,41,6.50
2002,04,14,13,42,6.60
2002,04,14,13,43,6.70
2002,04,14,13,44,6.80
2002,04,14,13,45,6.80
2002,04,14,13,46,6.80
2002,04,14,13,47,6.80
2002,04,14,13,48,6.80
2002,04,14,13,49,6.80
2002,04,14,13,50,6.90
2002,04,14,13,51,6.90
2002,04,14,13,52,6.90
2002,04,14,13,53,6.90
2002,04,14,13,54,6.90
2002,04,14,13,55,7.00
2002,04,14,13,56,7.00
2002,04,14,13,57,6.90
2002,04,14,13,58,6.70
2002,04,14,13,59,6.70
2002,04,14,14,00,6.70
2002,04,14,14,01,6.80
2002,04,14,14,02,6.70
2002,04,14,14,03,6.60
2002,04,14,14,04,6.70
2002,04,14,14,05,6.80
2002,04,14,14,06,6.90
2002,04,14,14,07,6.80
2002,04,14,14,08,6.80
2002,04,14,14,09,6.80
2002,04,14,14,10,6.80
2002,04,14,14,11,6.70
2002,04,14,14,12,6.70
2002,04,14,14,13,6.80
2002,04,14,14,14,6.80
2002,04,14,14,15,6.80
2002,04,14,14,16,6.80
2002,04,14,14,17,6.60
2002,04,14,14,18,6.60
2002,04,14,14,19,6.50
2002,04,14,14,20,6.40
2002,04,14,14,21,6.40
2002,04,14,14,22,6.40
2002,04,14,14,23,6.40
2002,04,14,14,24,6.40
2002,04,14,14,25,6.40
2002,04,14,14,26,6.30
2002,04,14,14,27,6.20
2002,04,14,14,28,6.10
2002,04,14,14,29,6.00
2002,04,14,14,30,5.90
2002,04,14,14,31,5.80
2002,04,14,14,32,5.80
2002,04,14,14,33,5.70
2002,04,14,14,34,5.70
2002,04,14,14,35,5.70
2002,04,14,14,36,5.80
2002,04,14,14,37,5.90
2002,04,14,14,38,5.90
2002,04,14,14,39,6.00
2002,04,14,14,40,6.20
2002,04,14,14,41,6.20
2002,04,14,14,42,6.30
2002,04,14,14,43,6.40
2002,04,14,14,44,6.40
2002,04,14,14,45,6.40
2002,04,14,14,46,6.40
2002,04,14,14,47,6.40
2002,04,14,14,48,6.40
2002,04,14,14,49,6.40
2002,04,14,14,50,6.40
2002,04,14,14,51,6.50
2002,04,14,14,52,6.60
2002,04,14,14,53,6.60
2002,04,14,14,54,6.70
2002,04,14,14,55,6.70
2002,04,14,14,56,6.80
2002,04,14,14,57,6.80
2002,04,14,14,58,6.80
2002,04,14,14,59,7.00
2002,04,14,15,00,7.00
2002,04,14,15,01,7.00
2002,04,14,15,02,7.10
2002,04,14,15,03,7.20
2002,04,14,15,04,7.30
2002,04,14,15,05,7.30
2002,04,14,15,06,7.40
2002,04,14,15,07,7.50
2002,04,14,15,08,7.50
2002,04,14,15,09,7.50
2002,04,14,15,10,7.50
2002,04,14,15,11,7.70
2002,04,14,15,12,7.80
2002,04,14,15,13,7.90
2002,04,14,15,14,7.80
2002,04,14,15,15,7.80
2002,04,14,15,16,7.80
2002,04,14,15,17,7.80
2002,04,14,15,18,7.60
2002,04,14,15,19,7.50
2002,04,14,15,20,7.50
2002,04,14,15,21,7.50
2002,04,14,15,22,7.50
2002,04,14,15,23,7.50
2002,04,14,15,24,7.50
2002,04,14,15,25,7.40
2002,04,14,15,26,7.30
2002,04,14,15,27,7.20
2002,04,14,15,28,7.10
2002,04,14,15,29,6.90
2002,04,14,15,30,6.70
2002,04,14,15,31,6.80
2002,04,14,15,32,6.60
2002,04,14,15,33,6.70
2002,04,14,15,34,6.80
2002,04,14,15,35,6.80
2002,04,14,15,36,6.90
2002,04,14,15,37,7.20
2002,04,14,15,38,7.30
2002,04,14,15,39,7.50
2002,04,14,15,40,7.70
2002,04,14,15,41,7.80
2002,04,14,15,42,7.90
2002,04,14,15,43,8.00
2002,04,14,15,44,8.00
2002,04,14,15,45,8.00
2002,04,14,15,46,8.00
2002,04,14,15,47,8.10
2002,04,14,15,48,8.30
2002,04,14,15,49,8.40
2002,04,14,15,50,8.60
2002,04,14,15,51,8.60
2002,04,14,15,52,8.80
2002,04,14,15,53,8.70
2002,04,14,15,54,8.60
2002,04,14,15,55,8.70
2002,04,14,15,56,8.80
2002,04,14,15,57,8.70
2002,04,14,15,58,8.80
2002,04,14,15,59,8.70
2002,04,14,16,00,8.70
2002,04,14,16,01,8.80
2002,04,14,16,02,8.90
2002,04,14,16,03,8.90
2002,04,14,16,04,8.80
2002,04,14,16,05,8.80
2002,04,14,16,06,8.80
2002,04,14,16,07,8.80
2002,04,14,16,08,8.80
2002,04,14,16,09,8.80
2002,04,14,16,10,8.80
2002,04,14,16,11,8.80
2002,04,14,16,12,8.70
2002,04,14,16,13,8.70
2002,04,14,16,14,8.60
2002,04,14,16,15,8.50
2002,04,14,16,16,8.20
2002,04,14,16,17,7.80
2002,04,14,16,18,7.60
2002,04,14,16,19,7.20
2002,04,14,16,20,7.10
2002,04,14,16,21,7.10
2002,04,14,16,22,7.10
2002,04,14,16,23,7.00
2002,04,14,16,24,7.10
2002,04,14,16,25,7.10
2002,04,14,16,26,7.20
2002,04,14,16,27,7.20
2002,04,14,16,28,7.30
2002,04,14,16,29,7.50
2002,04,14,16,30,7.60
2002,04,14,16,31,7.70
2002,04,14,16,32,7.80
2002,04,14,16,33,8.00
2002,04,14,16,34,8.10
2002,04,14,16,35,8.30
2002,04,14,16,36,8.40
2002,04,14,16,37,8.50
2002,04,14,16,38,8.70
2002,04,14,16,39,8.80
2002,04,14,16,40,8.90
2002,04,14,16,41,8.90
2002,04,14,16,42,9.00
2002,04,14,16,43,9.00
2002,04,14,16,44,9.00
2002,04,14,16,45,8.90
2002,04,14,16,46,8.90
2002,04,14,16,47,8.90
2002,04,14,16,48,8.80
2002,04,14,16,49,8.80
2002,04,14,16,50,8.70
2002,04,14,16,51,8.70
2002,04,14,16,52,8.60
2002,04,14,16,53,8.60
2002,04,14,16,54,8.60
2002,04,14,16,55,8.70
2002,04,14,16,56,8.60
2002,04,14,16,57,8.70
2002,04,14,16,58,8.70
2002,04,14,16,59,8.80
2002,04,14,17,00,8.70
2002,04,14,17,01,8.80
2002,04,14,17,02,8.80
2002,04,14,17,03,8.70
2002,04,14,17,04,8.70
2002,04,14,17,05,8.60
2002,04,14,17,06,8.70
2002,04,14,17,07,8.70
2002,04,14,17,08,8.70
2002,04,14,17,09,8.70
2002,04,14,17,10,8.70
2002,04,14,17,11,8.70
2002,04,14,17,12,8.70
2002,04,14,17,13,8.70
2002,04,14,17,14,8.70
2002,04,14,17,15,8.70
2002,04,14,17,16,8.60
2002,04,14,17,17,8.50
2002,04,14,17,18,8.40
2002,04,14,17,19,8.40
2002,04,14,17,20,8.40
2002,04,14,17,21,8.40
2002,04,14,17,22,8.30
2002,04,14,17,23,8.30
2002,04,14,17,24,8.20
2002,04,14,17,25,8.20
2002,04,14,17,26,8.20
2002,04,14,17,27,8.20
2002,04,14,17,28,8.20
2002,04,14,17,29,8.20
2002,04,14,17,30,8.20
2002,04,14,17,31,8.20
2002,04,14,17,32,8.20
2002,04,14,17,33,8.20
2002,04,14,17,34,8.20
2002,04,14,17,35,8.20
2002,04,14,17,36,8.20
2002,04,14,17,37,8.20
2002,04,14,17,38,8.20
2002,04,14,17,39,8.20
2002,04,14,17,40,8.20
2002,04,14,17,41,8.20
2002,04,14,17,42,8.20
2002,04,14,17,43,8.10
2002,04,14,17,44,8.10
2002,04,14,17,45,8.10
2002,04,14,17,46,8.20
2002,04,14,17,47,8.20
2002,04,14,17,48,8.10
2002,04,14,17,49,8.20
2002,04,14,17,50,8.20
2002,04,14,17,51,8.20
2002,04,14,17,52,8.20
2002,04,14,17,53,8.20
2002,04,14,17,54,8.20
2002,04,14,17,55,8.20
2002,04,14,17,56,8.20
2002,04,14,17,57,8.20
2002,04,14,17,58,8.20
2002,04,14,17,59,8.20
2002,04,14,18,00,8.20
2002,04,14,18,01,8.20
2002,04,14,18,02,8.20
2002,04,14,18,03,8.20
2002,04,14,18,04,8.20
2002,04,14,18,05,8.20